JA0BES-13 Weather Reports


Display with metric or nautical units.
time (UTC)temp
F
wind
direction
speed
MPH
gust
MPH
rain 1hr
in
rain 24hr
in
rain mn
in
humidity
%
barometer
mb
20191115120323 46 225 0.0 0.0 0.00 0.00 0.00 78 1014.7
20191115115322 46 225 0.0 0.0 0.00 0.00 0.00 77 1014.6
20191115114322 46 225 0.0 0.0 0.00 0.00 0.00 78 1014.2
20191115113322 47 225 0.0 0.0 0.00 0.00 0.00 78 1014.2
20191115112321 47 225 0.0 0.0 0.00 0.00 0.00 78 1014.3
20191115111321 47 270 0.0 0.0 0.00 0.00 0.00 78 1014.4
20191115110320 47 225 0.0 0.0 0.00 0.00 0.00 76 1014.4
20191115105320 48 225 0.0 0.0 0.00 0.00 0.00 74 1014.3
20191115104320 49 256 1.0 1.0 0.00 0.00 0.00 74 1014.5
20191115103320 49 225 0.0 0.0 0.00 0.00 0.00 73 1014.5
20191115102319 49 225 0.0 0.0 0.00 0.00 0.00 73 1014.2
20191115101319 50 225 0.0 0.0 0.00 0.00 0.00 72 1014.3
20191115100318 50 225 0.0 0.0 0.00 0.00 0.00 71 1014.4
20191115095318 51 225 0.0 0.0 0.00 0.00 0.00 71 1014.6
20191115094317 51 225 0.0 0.0 0.00 0.00 0.00 70 1014.7
20191115093317 51 225 0.0 0.0 0.00 0.00 0.00 69 1014.5
20191115092317 52 225 0.0 0.0 0.00 0.00 0.00 69 1014.6
20191115091317 53 225 0.0 0.0 0.00 0.00 0.00 68 1014.7
20191115090316 53 225 0.0 0.0 0.00 0.00 0.00 67 1014.7
20191115085316 53 225 0.0 0.0 0.00 0.00 0.00 67 1014.6
20191115084315 54 225 0.0 0.0 0.00 0.00 0.00 66 1014.8
20191115083315 55 225 0.0 0.0 0.00 0.00 0.00 65 1014.8
20191115082315 55 225 0.0 0.0 0.00 0.00 0.00 64 1014.7
20191115081315 56 225 0.0 0.0 0.00 0.00 0.00 63 1014.4
20191115080314 56 225 0.0 1.0 0.00 0.00 0.00 62 1014.4
20191115075314 57 225 0.0 0.0 0.00 0.00 0.00 61 1014.5
20191115074313 58 256 1.0 1.0 0.00 0.00 0.00 60 1014.6
20191115073313 59 225 0.0 1.0 0.00 0.00 0.00 59 1014.3
20191115072313 60 225 0.0 1.0 0.00 0.00 0.00 58 1014.4
20191115071313 62 121 1.0 1.0 0.00 0.00 0.00 55 1014.2
20191115070312 63 196 0.0 1.0 0.00 0.00 0.00 55 1014.2
20191115065312 64 225 0.0 1.0 0.00 0.00 0.00 55 1014.3
20191115064311 64 225 0.0 1.0 0.00 0.00 0.00 54 1014.3
20191115063311 65 225 0.0 0.0 0.00 0.00 0.00 54 1014.1
20191115062310 65 225 0.0 0.0 0.00 0.00 0.00 53 1013.9
20191115061310 65 220 0.0 0.0 0.00 0.00 0.00 53 1013.7
20191115060310 65 231 0.0 3.0 0.00 0.00 0.00 52 1013.6
20191115055310 65 225 0.0 1.0 0.00 0.00 0.00 52 1013.5
20191115054309 66 234 1.0 4.0 0.00 0.00 0.00 48 1013.5
20191115053309 66 184 0.0 3.0 0.00 0.00 0.00 49 1013.4
20191115052308 67 190 1.0 2.0 0.00 0.00 0.00 51 1013.5
20191115051308 67 99 4.0 4.0 0.00 0.00 0.00 50 1013.5
20191115050308 67 202 0.0 4.0 0.00 0.00 0.00 49 1013.3
20191115045308 68 229 0.0 2.0 0.00 0.00 0.00 50 1013.1
20191115044307 67 211 0.0 3.0 0.00 0.00 0.00 50 1013.3
20191115043307 67 148 1.0 3.0 0.00 0.00 0.00 51 1013.3
20191115042306 65 225 0.0 2.0 0.00 0.00 0.00 51 1013.1
20191115041306 65 236 1.0 1.0 0.00 0.00 0.00 52 1013.3
20191115040306 64 260 1.0 3.0 0.00 0.00 0.00 51 1013.5
20191115035306 64 209 1.0 2.0 0.00 0.00 0.00 53 1013.5
20191115034305 63 200 1.0 2.0 0.00 0.00 0.00 55 1013.6
20191115033305 62 234 0.0 2.0 0.00 0.00 0.00 56 1013.8
20191115032304 61 265 2.0 2.0 0.00 0.00 0.00 57 1013.8
20191115031304 59 277 1.0 3.0 0.00 0.00 0.00 58 1013.9
20191115030304 60 236 0.0 2.0 0.00 0.00 0.00 56 1014.2
20191115025303 60 237 0.0 2.0 0.00 0.00 0.00 61 1014.4
20191115024303 59 216 1.0 3.0 0.00 0.00 0.00 63 1014.7
20191115023303 58 243 0.0 2.0 0.00 0.00 0.00 64 1015.1
20191115022302 58 220 2.0 2.0 0.00 0.00 0.00 65 1015.3
20191115021302 56 225 0.0 3.0 0.00 0.00 0.00 66 1015.2
20191115020301 56 261 0.0 2.0 0.00 0.00 0.00 66 1015.3
20191115015301 56 213 0.0 2.0 0.00 0.00 0.00 67 1015.5
20191115014301 56 225 0.0 2.0 0.00 0.00 0.00 67 1015.8
20191115013301 56 225 0.0 3.0 0.00 0.00 0.00 69 1015.9
20191115012300 55 87 1.0 2.0 0.00 0.00 0.00 71 1016.1
20191115010256 54 234 0.0 1.0 0.00 0.00 0.00 75 1016.3
20191115005256 53 225 0.0 1.0 0.00 0.00 0.00 75 1016.2
20191115004256 52 252 1.0 2.0 0.00 0.00 0.00 77 1016.3
20191115003255 51 225 0.0 1.0 0.00 0.00 0.00 82 1016.5
20191115002255 48 200 0.0 2.0 0.00 0.00 0.00 82 1016.7
20191115001255 47 265 0.0 3.0 0.00 0.00 0.00 82 1016.5
20191115000254 47 261 3.0 3.0 0.00 0.00 0.00 82 1016.6
20191114235254 46 213 1.0 3.0 0.00 0.00 0.00 84 1016.6
20191114234253 46 258 0.0 3.0 0.00 0.00 0.00 86 1016.6
20191114233253 45 265 2.0 2.0 0.00 0.00 0.00 89 1016.8
20191114232253 44 234 0.0 3.0 0.00 0.00 0.00 90 1016.5
20191114231253 43 225 1.0 3.0 0.00 0.00 0.00 92 1016.4
20191114230252 43 240 0.0 2.0 0.00 0.00 0.00 93 1016.5
20191114225252 42 256 2.0 2.0 0.00 0.00 0.00 94 1016.4
20191114224251 41 225 0.0 1.0 0.00 0.00 0.00 94 1016.6
20191114223251 41 225 0.0 1.0 0.00 0.00 0.00 96 1016.7
20191114222251 40 225 1.0 1.0 0.00 0.00 0.00 99 1016.8
20191114221250 40 225 0.0 0.0 0.00 0.00 0.00 100 1016.6
20191114220250 39 225 0.0 0.0 0.00 0.00 0.00 100 1016.6
20191114215250 39 225 0.0 0.0 0.00 0.00 0.00 100 1016.6
20191114214249 39 225 0.0 0.0 0.00 0.00 0.00 100 1016.3
20191114213249 39 225 0.0 0.0 0.00 0.00 0.00 99 1016.3
20191114212248 39 225 0.0 0.0 0.00 0.00 0.00 99 1016.5
20191114211248 39 225 0.0 0.0 0.00 0.00 0.00 99 1016.3
20191114210248 39 220 0.0 0.0 0.00 0.00 0.00 99 1016.0
20191114205248 39 225 0.0 0.0 0.00 0.00 0.00 98 1016.0
20191114204247 39 225 0.0 0.0 0.00 0.00 0.00 99 1016.0
20191114203247 39 225 0.0 0.0 0.00 0.00 0.00 98 1015.8
20191114202246 39 225 0.0 0.0 0.00 0.00 0.00 98 1015.8
20191114201246 39 211 0.0 0.0 0.00 0.00 0.00 97 1015.8
20191114200245 39 225 0.0 0.0 0.00 0.00 0.00 97 1015.8
20191114195245 39 225 0.0 0.0 0.00 0.00 0.00 97 1015.8
20191114194245 39 225 0.0 0.0 0.00 0.00 0.00 95 1015.7
20191114193245 40 225 0.0 0.0 0.00 0.00 0.00 94 1015.7
20191114192244 40 225 0.0 0.0 0.00 0.00 0.00 95 1015.7
20191114191244 40 225 0.0 0.0 0.00 0.00 0.00 95 1015.8
20191114190243 40 225 0.0 0.0 0.00 0.00 0.00 95 1015.4
20191114185243 41 225 0.0 0.0 0.00 0.00 0.00 95 1015.6
20191114184243 41 225 0.0 0.0 0.00 0.00 0.00 94 1015.5
20191114183243 41 225 0.0 0.0 0.00 0.00 0.00 95 1015.6
20191114182242 41 225 0.0 0.0 0.00 0.00 0.00 95 1015.4
20191114181242 41 225 0.0 0.0 0.00 0.00 0.00 95 1015.5
20191114180241 41 225 0.0 0.0 0.00 0.00 0.00 94 1015.4
20191114175241 42 225 0.0 0.0 0.00 0.00 0.00 95 1015.5
20191114174241 42 225 0.0 0.0 0.00 0.00 0.00 94 1015.4
20191114173241 41 225 0.0 0.0 0.00 0.00 0.00 94 1015.3
20191114172240 41 225 0.0 0.0 0.00 0.00 0.00 94 1015.4
20191114171240 41 225 0.0 0.0 0.00 0.00 0.00 94 1015.2
20191114170239 41 195 0.0 0.0 0.00 0.00 0.00 94 1015.3
20191114165239 41 225 0.0 0.0 0.00 0.00 0.00 94 1015.1
20191114164238 41 225 0.0 0.0 0.00 0.00 0.00 93 1015.2
20191114163238 41 225 1.0 1.0 0.00 0.00 0.00 93 1015.2
20191114162238 41 225 0.0 0.0 0.00 0.00 0.00 93 1015.1
20191114161238 41 225 0.0 0.0 0.00 0.00 0.00 92 1015.1
20191114160237 41 243 0.0 1.0 0.00 0.00 0.00 91 1015.1
20191114155237 41 225 0.0 1.0 0.00 0.00 0.00 91 1014.9
20191114154236 41 211 0.0 0.0 0.00 0.00 0.00 91 1014.9
20191114153236 41 225 0.0 0.0 0.00 0.00 0.00 90 1015.0
20191114152236 41 225 0.0 0.0 0.00 0.00 0.00 89 1014.9
20191114151236 42 225 0.0 0.0 0.00 0.00 0.00 89 1014.8
20191114150235 42 225 0.0 0.0 0.00 0.00 0.00 87 1014.8
20191114145235 42 225 0.0 0.0 0.00 0.00 0.00 88 1014.8
20191114144234 42 225 0.0 0.0 0.00 0.00 0.00 87 1014.9
20191114143234 42 225 0.0 0.0 0.00 0.00 0.00 87 1014.8
20191114142233 42 225 0.0 0.0 0.00 0.00 0.00 87 1015.0
20191114141234 42 225 0.0 0.0 0.00 0.00 0.00 86 1014.8
20191114140233 42 225 0.0 0.0 0.00 0.00 0.00 86 1014.9
20191114135233 42 234 0.0 0.0 0.00 0.00 0.00 86 1014.9
20191114134232 43 225 0.0 0.0 0.00 0.00 0.00 86 1014.7
20191114133232 43 225 0.0 0.0 0.00 0.00 0.00 85 1014.9
20191114132231 43 225 0.0 0.0 0.00 0.00 0.00 85 1014.9
20191114131231 44 225 0.0 0.0 0.00 0.00 0.00 85 1014.8
20191114130231 44 225 0.0 0.0 0.00 0.00 0.00 84 1014.9
20191114125231 44 225 0.0 0.0 0.00 0.00 0.00 84 1014.7
20191114124230 44 225 0.0 0.0 0.00 0.00 0.00 84 1014.6
20191114123230 44 225 0.0 0.0 0.00 0.00 0.00 84 1014.6
20191114122229 44 222 0.0 0.0 0.00 0.00 0.00 84 1014.5
20191114121229 45 225 0.0 0.0 0.00 0.00 0.00 84 1014.4